Погода в Курске

Хотите узнать прогноз погоды в Курске? Тогда Вам сюда: Погода в Курске

Поиск расширенной информации на нашем сайте:

Полезная информация:

Новости сайта



02.01.2020
Опубликован Долгосрочный прогноз погоды по городам России и ближнего зарубежья на январь 2020 года.
Карты: Прогноз на январь и февраль 2020 года, Сравнение прогнозируемой аномалии приземной температуры воздуха на январь 2020 года по разным моделям.




Погода в Курске - сегодня

Время (UTC), дата Ветер
(°,м/с) 
Видим.   Явления Облачность Т
(°С)
Тd
(°С)
f(%) Тe
(°С)
Pmin
(гПа)
dP
(гПа)
Po
(мм)
O2
(г/м3)
Тmin Tmax R s Состояние
почвы
15 27.03.20 080 (В) 10 км    ясно 
+15.3 -8.9 18 +16  1026.8  -1.7  748  286           
18 27.03.20 080 (В) 10 км    ясно 
+10.2 -9.7 24 +11  1027  -0.3  748  291    +17.2       
21 27.03.20 060 (СВ) 10 км    ясно 
+8.3 -7.6 32 +8  1026.7  -0.4  747  293           
00 28.03.20 060 (СВ) 10 км    ясно 
+5.9 -6.3 41 +5  1025.6  -1.3  746  295           
03 28.03.20 060 (СВ) 10 км    5/0 верхняя 
[Ci fib]
+4 -5.2 51 +3  1024.8  -1  746  297  +4         
06 28.03.20 080 (В) 10 км    8/0 верхняя 
[Ci fib]
+7.4 -3.7 45 +7  1024  -0.3  745  293  +3.7        сухая 
09 28.03.20 120 (ЮВ) 10 км    8/0 верхняя 
[Ci fib]
+14.3 -6.3 23 +14  1021.6  -1.7  744  285           
12 28.03.20 110 (В) 10 км    8/0 верхняя 
[Ci fib]
+16.1 -8.8 17 +16  1018.8  -2.5  742  283           
15 28.03.20 100 (В) 10 км    3/0 средняя, верхняя 
[Ac trans|Ci fib]
+15.2 -8.3 19 +15  1016.8  -2  741  283           
18 28.03.20 100 (В) 10 км    8/0 средняя 
[Ac trans]
+11.2 -6.7 28 +11  1016.3  -0.9  740  287    +16.3       
21 28.03.20 090 (В) 10 км    5/0 средняя 
[Ac trans]
+9.5 -5.4 34 +10  1015.3  -1.2  739  288           
00 29.03.20 090 (В) 10 км    5/0 средняя 
[Ac trans]
+7.5 -4.8 41 +7  1013.9  -1.6  738  290           
03 29.03.20 080 (В) 10 км    9/0 верхняя 
[Ci fib]
+5.8 -5.3 45 +5  1012.6  -1.4  737  291  +5.8         
06 29.03.20 100 (В) 10 км    9/3 1000 м средняя, верхняя 
[Sc|Ac trans|Ci fib]
+8.9 -7 32 +8  1011.2  -1  736  288  +5.7        сухая 
09 29.03.20 130 (ЮВ) 10 км    9/1 1000 м верхняя 
[Cu hum|Cc]
+14.3 -4.3 27 +14  1008.7  -1.9  735  282           
12 29.03.20 140 (ЮВ) 4{10}  10 км    10/3 1000 м верхняя 
[Sc diur, vesp|Cs]
+15 -13.1 13 +15  1007.1  -1.6  734  281           
15 29.03.20 150 (ЮВ) 10 км    10/8 1000 м верхняя 
[Sc|Cs]
+15 -13.7 12 +15  1005.6  -1.4  732  281           
18 29.03.20 090 (В) 10 км    9/0 средняя, верхняя 
[Ac trans|Ci fib]
+12.5 -12.9 16 +13  1005.4  -0.4  732  283    +15.7       
21 29.03.20 070 (В) 10 км    9/6 1000 м средняя, верхняя 
[Sc|Ac trans|Ci fib]
+10.4 -11.6 20 +11  1004.3  -1.3  731  285           
00 30.03.20 070 (В) 10 км    9/8 1000 м средняя 
[Sc|Ac trans]
+8.4 -9.9 26 +9  1003.1  -1.3  730  286           
03 30.03.20 тихо ()   10 км    10/10 600 м 
[Sc]
+6.3 -9.2 32 +6  1002.3  -1  729  288  +6.3         
06 30.03.20 тихо ()   10 км    9/0 средняя 
[Ac trans]
+10.6 -8.4 25 +11  1001.9  729  284  +6.3        сухая 
09 30.03.20 360 (С) 10 км    9/3 1000 м средняя 
[Sc|Ac trans]
+15 -8.8 18 +16  1001.3  0.1  729  279           
12 30.03.20 340 (С) 10 км    8/0 средняя, верхняя 
[Ac trans|Ci fib]
+16.4 -10.8 14 +17  1000.9  -0.3  729  278           
15 30.03.20 330 (СЗ) 4{10}  10 км    9/4 600 м средняя, верхняя 
[Sc|Ac trans|Ci fib]
+12.1 -2.7 35 +12  1002.4  1.1  730  282           
Время (UTC), дата Ветер
(°,м/с) 
Видим.   Явления Облачность Т
(°С)
Тd
(°С)
f(%) Тe
(°С)
Pmin
(гПа)
dP
(гПа)
Po
(мм)
O2
(г/м3)
Тmin Tmax R s Состояние
почвы

Для получения пояснительной информации подведите курсор к названию столбца.

ПОГОДА в Курске - архив

Всё, что Вы хотите узнать о погоде в Курске - удобно и подробно!

Выберите нужную дату (начиная с 1 января 2019* года) и нажмите кнопку "Найти".
Будут отображены архивные сводки погоды по пункту Курск, начиная с указанной даты.


Отображать данные в формате CSV (для использования в таблицах Excel)


Внимание! Наш архив погоды предназначен исключительно для личного некоммерческого использования в познавательных целях. Если Вам необходимы официальные справки о состоянии погоды (для производственных, юридических, коммерческих и т.п. целей), обращайтесь в органы Росгидромета.

*Примечание: данная дата относится к архиву по метеостанциям СССР (Россия, СНГ, Балтия).
Архив по метеостанциям Зарубежной Европы и Азии (кроме Китая) хранится 10 дней, по другим регионам земного шара (Китай, Африка, Америка, Австралия, Океания) - 1 день.

Курск - район местоположения метеостанции


Название, широта, долгота, высота метеостанции:
Курск 51.8°ш. 36.2°д. 247 м над ур. моря [Российская Федерация]

Дополнительная информация

В oтличие oт бoльшинства пoгoдных сайтoв мы публикуем пoдрoбную метеoинфoрмацию в детальнoм прoфессиoнальнoм фoрмате.

Характеристики температуры и влажнoсти вoздуха измеряются на высoте 2 м в тени вдали oт зданий и деревьев.
Скoрoсть ветра измеряется на высoте 10 м (на урoвне рoста челoвека скoрoсть ветра ниже в 1.5-2 раза). Если метеoстанция нахoдится в гoрoде или в лесу, тo скoрoсть ветра занижена на 2-4 м/с пo сравнению с oткрытым местoм. Скoрoсть ветра над акватoриями крупных рек и oзёр, а также на вершинах хoлмoв на 2-5 м/с выше, чем в oбычных услoвиях.
Атмoсфернoе давление в разных тoчках местнoсти мoжет значительнo oтличаться oт давления на метеoстанции, в зависимoсти oт услoвий рельефа (при пoдъёме на 10 м давление пoнижается примернo на 1 мм рт.ст.).